,,PA_Meas_PMT16A,,PR_Meas_QMR101_102,,RH_Meas_QMH101,,SR_Meas_QMS101,,TA_Meas_QMH101,,GenWind,,GenWind,
time,status,PA,status,PR,status,RH,status,SR,status,TA,status,DirAvg,status,SpdAvg,
2000-01-06, 13:15:04,VALID,918.184,VALID,0,INVALID,109.808,VALID,139.244,VALID,18.1849,VALID,131,VALID,0,
2000-01-06, 13:16:04,VALID,918.197,VALID,0,INVALID,109.792,VALID,133.872,VALID,18.3018,VALID,131,VALID,0,
2000-01-06, 13:17:04,VALID,918.194,VALID,0,INVALID,109.739,VALID,127.425,VALID,18.4383,VALID,128,VALID,0,
2000-01-06, 13:18:04,VALID,918.228,VALID,0,INVALID,109.724,VALID,149.773,VALID,18.5163,VALID,121,VALID,0,
2000-01-06, 13:19:04,VALID,918.24,VALID,0,INVALID,109.663,VALID,149.128,VALID,18.6723,VALID,112,VALID,0,
2000-01-06, 13:20:04,VALID,918.289,VALID,0,INVALID,109.67,VALID,139.136,VALID,18.6528,VALID,124,VALID,0,
2000-01-06, 13:31:04,VALID,918.476,VALID,0,INVALID,109.823,VALID,124.632,VALID,18.3004,VALID,132,VALID,0,
2000-01-06, 13:35:04,VALID,918.545,VALID,0,INVALID,109.731,VALID,122.59,VALID,18.4759,VALID,114,VALID,0,
2000-01-06, 13:37:04,VALID,918.544,VALID,0,INVALID,109.731,VALID,113.888,VALID,18.5149,VALID,114,VALID,0,
2000-01-06, 13:38:04,VALID,918.557,VALID,0,INVALID,109.724,VALID,149.451,VALID,18.5149,VALID,113,VALID,0,
2000-01-06, 13:39:04,VALID,918.512,VALID,0,INVALID,109.747,VALID,169.005,VALID,18.5149,VALID,113,VALID,0,
2000-01-06, 13:40:04,VALID,918.53,VALID,0,INVALID,109.747,VALID,151.385,VALID,18.5149,VALID,113,VALID,0,
2000-01-06, 13:41:04,VALID,918.533,VALID,0,INVALID,109.724,VALID,174.484,VALID,18.5149,VALID,113,VALID,0,
2000-01-06, 13:42:04,VALID,918.518,VALID,0,INVALID,109.693,VALID,122.805,VALID,18.6319,VALID,113,VALID,0,
2000-01-06, 13:43:04,VALID,918.516,VALID,0,INVALID,109.678,VALID,148.806,VALID,18.6513,VALID,116,VALID,0,
2000-01-06, 13:44:04,VALID,918.553,VALID,0,INVALID,109.663,VALID,143.434,VALID,18.7098,VALID,118,VALID,0,
2000-01-06, 13:45:04,VALID,918.591,VALID,0,INVALID,109.648,VALID,126.888,VALID,18.7293,VALID,118,VALID,0,
2000-01-06, 13:46:04,VALID,918.69,VALID,0,INVALID,109.686,VALID,116.144,VALID,18.6903,VALID,118,VALID,0,
2000-01-06, 13:47:04,VALID,919.001,VALID,0,INVALID,109.693,VALID,113.136,VALID,18.6903,VALID,115,VALID,0,
2000-01-06, 13:48:04,VALID,918.591,VALID,0,INVALID,109.678,VALID,116.251,VALID,18.7293,VALID,100,VALID,0,
2000-01-06, 13:49:04,VALID,918.639,VALID,0,INVALID,109.678,VALID,108.408,VALID,18.7488,VALID,104,VALID,0,
2000-01-06, 13:50:04,VALID,918.56,VALID,0,INVALID,109.678,VALID,114.425,VALID,18.7878,VALID,123,VALID,0,
2000-01-06, 13:58:04,VALID,918.564,VALID,0,INVALID,109.709,VALID,105.292,VALID,18.7503,VALID,112,VALID,1.45742,
2000-01-06, 14:00:04,VALID,918.615,VALID,0,INVALID,109.709,VALID,101.21,VALID,18.7712,VALID,113,VALID,1.38047,
2000-01-06, 14:01:04,VALID,918.616,VALID,0,INVALID,109.731,VALID,106.797,VALID,18.7712,VALID,124,VALID,1.3375,
2000-01-06, 14:02:04,VALID,918.608,VALID,0,INVALID,109.701,VALID,144.616,VALID,18.7697,VALID,113,VALID,1.18359,
2000-01-06, 14:03:04,VALID,918.614,VALID,0,INVALID,109.693,VALID,130.971,VALID,18.8282,VALID,117,VALID,0.871875,
2000-01-06, 14:04:04,VALID,918.6,VALID,0,INVALID,109.655,VALID,133.12,VALID,18.8672,VALID,130,VALID,0.845703,
2000-01-06, 14:05:04,VALID,918.636,VALID,0,INVALID,109.678,VALID,133.12,VALID,18.8672,VALID,137,VALID,0.63125,
2000-01-06, 14:06:04,VALID,918.629,VALID,0,INVALID,109.648,VALID,142.789,VALID,18.9452,VALID,169,VALID,0.195313,
2000-01-06, 14:07:04,VALID,918.651,VALID,0,INVALID,109.663,VALID,164.6,VALID,18.8463,VALID,163,VALID,0,
2000-01-06, 14:08:04,VALID,918.654,VALID,0,INVALID,109.701,VALID,149.88,VALID,18.8477,VALID,140,VALID,1.45234,
2000-01-06, 14:09:04,VALID,918.646,VALID,0,INVALID,109.709,VALID,222.726,VALID,18.8658,VALID,137,VALID,1.21055,
2000-01-06, 14:10:04,VALID,918.637,VALID,0,INVALID,109.686,VALID,329.415,VALID,18.9647,VALID,131,VALID,1.2793,
2000-01-06, 14:11:04,VALID,918.657,VALID,0,INVALID,109.617,VALID,281.926,VALID,19.1012,VALID,126,VALID,1.38555,
2000-01-06, 14:12:04,VALID,918.651,VALID,0,INVALID,109.564,VALID,281.926,VALID,19.2572,VALID,125,VALID,1.55352,
2000-01-06, 14:13:04,VALID,918.676,VALID,0,INVALID,109.533,VALID,397.103,VALID,19.3562,VALID,165,VALID,1.50625,
2000-01-06, 14:14:04,VALID,918.711,VALID,0,INVALID,109.503,VALID,239.379,VALID,19.4132,VALID,152,VALID,1.50898,
2000-01-06, 14:15:04,VALID,918.73,VALID,0,INVALID,109.617,VALID,263.768,VALID,19.1987,VALID,150,VALID,1.65781,
2000-01-06, 14:16:04,VALID,918.722,VALID,0,INVALID,109.632,VALID,222.296,VALID,19.1973,VALID,149,VALID,1.16602,
2000-01-06, 14:17:04,VALID,918.779,VALID,0,INVALID,109.64,VALID,358.209,VALID,19.2962,VALID,163,VALID,1.19687,
2000-01-06, 14:18:04,VALID,918.792,VALID,0,INVALID,109.663,VALID,263.875,VALID,19.2363,VALID,135,VALID,0.997656,
2000-01-06, 14:19:04,VALID,918.775,VALID,0,INVALID,109.678,VALID,267.851,VALID,19.2767,VALID,147,VALID,1.39492,
2000-01-06, 14:20:04,VALID,918.804,VALID,0,INVALID,109.747,VALID,190.923,VALID,19.1778,VALID,145,VALID,1.48711,
2000-01-06, 14:21:04,VALID,918.807,VALID,0,INVALID,109.838,VALID,187.485,VALID,19.1388,VALID,144,VALID,1.53711,
2000-01-06, 14:22:04,VALID,918.787,VALID,0,INVALID,109.831,VALID,182.757,VALID,19.1778,VALID,161,VALID,1.25977,
2000-01-06, 14:23:04,VALID,918.776,VALID,0,INVALID,109.876,VALID,181.898,VALID,19.1778,VALID,159,VALID,1.03203,
2000-01-06, 14:24:04,VALID,918.772,VALID,0,INVALID,109.861,VALID,230.891,VALID,19.2363,VALID,157,VALID,1.22539,
2000-01-06, 14:25:04,VALID,918.778,VALID,0,INVALID,109.861,VALID,211.444,VALID,19.2558,VALID,150,VALID,1.20586,
2000-01-06, 14:26:04,VALID,918.794,VALID,0,INVALID,109.777,VALID,236.908,VALID,19.4103,VALID,140,VALID,0.195313,
2000-01-06, 14:27:04,VALID,918.78,VALID,0,INVALID,109.747,VALID,247.867,VALID,19.5468,VALID,141,VALID,0,
2000-01-06, 14:28:04,VALID,918.798,VALID,0,INVALID,109.77,VALID,201.774,VALID,19.5273,VALID,138,VALID,0,
2000-01-06, 14:29:04,VALID,918.8,VALID,0,INVALID,109.8,VALID,204.998,VALID,19.5468,VALID,154,VALID,0,
2000-01-06, 14:30:04,VALID,918.805,VALID,0,INVALID,109.838,VALID,227.668,VALID,19.6638,VALID,153,VALID,0,
2000-01-06, 14:31:04,VALID,918.773,VALID,0,INVALID,109.831,VALID,262.586,VALID,19.7613,VALID,158,VALID,0,
2000-01-06, 14:32:04,VALID,918.763,VALID,0,INVALID,109.792,VALID,246.04,VALID,19.9173,VALID,141,VALID,0,
2000-01-06, 14:33:04,VALID,918.78,VALID,0,INVALID,109.77,VALID,248.511,VALID,20.0928,VALID,119,VALID,0,
2000-01-06, 14:34:04,VALID,918.786,VALID,0,INVALID,109.846,VALID,306.744,VALID,20.0538,VALID,121,VALID,1.37539,
2000-01-06, 14:35:04,VALID,918.785,VALID,0,INVALID,109.892,VALID,387.54,VALID,20.2293,VALID,107,VALID,0.00585938,
2000-01-06, 14:36:04,VALID,918.767,VALID,0,INVALID,110.029,VALID,426.112,VALID,20.2489,VALID,110,VALID,0,
2000-01-06, 14:37:04,VALID,918.78,VALID,0,INVALID,110.227,VALID,416.442,VALID,20.2293,VALID,120,VALID,0,
2000-01-06, 14:38:04,VALID,918.767,VALID,0,INVALID,110.463,VALID,414.078,VALID,20.1693,VALID,107,VALID,1.53516,
2000-01-06, 14:39:04,VALID,918.794,VALID,0,INVALID,110.593,VALID,306.1,VALID,20.2293,VALID,102,VALID,0,
2000-01-06, 14:40:04,VALID,918.775,VALID,0,INVALID,110.448,VALID,342.952,VALID,20.4423,VALID,89,VALID,0,
2000-01-06, 14:41:04,VALID,918.791,VALID,0,INVALID,110.486,VALID,324.043,VALID,20.5204,VALID,98,VALID,0,
2000-01-06, 14:42:04,VALID,918.796,VALID,0,INVALID,110.898,VALID,264.413,VALID,20.3854,VALID,106,VALID,0,
2000-01-06, 14:43:04,VALID,918.816,VALID,0,INVALID,110.997,VALID,328.34,VALID,20.4033,VALID,104,VALID,0,
2000-01-06, 14:44:04,VALID,918.798,VALID,0,INVALID,111.195,VALID,319.1,VALID,20.3269,VALID,101,VALID,0,
2000-01-06, 14:45:04,VALID,918.788,VALID,0,INVALID,111.332,VALID,332.315,VALID,20.2879,VALID,96,VALID,0,
2000-01-06, 14:46:04,VALID,918.786,VALID,0,INVALID,111.485,VALID,375.185,VALID,20.2489,VALID,113,VALID,0,
2000-01-06, 14:47:04,VALID,918.797,VALID,0,INVALID,111.561,VALID,418.054,VALID,20.2473,VALID,118,VALID,0,
2000-01-06, 14:48:04,VALID,918.794,VALID,0,INVALID,111.317,VALID,466.187,VALID,20.5204,VALID,128,VALID,0,
2000-01-06, 14:49:04,VALID,918.781,VALID,0,INVALID,111.447,VALID,547.735,VALID,20.6179,VALID,147,VALID,0,
2000-01-06, 14:50:04,VALID,918.779,VALID,0,INVALID,111.592,VALID,389.582,VALID,20.7739,VALID,104,VALID,0,
2000-01-06, 14:51:04,VALID,918.782,VALID,0,INVALID,111.79,VALID,293.099,VALID,20.8925,VALID,121,VALID,0,
2000-01-06, 14:52:04,VALID,918.823,VALID,0,INVALID,111.957,VALID,252.272,VALID,21.047,VALID,103,VALID,0,
2000-01-06, 14:53:04,VALID,918.823,VALID,0,INVALID,112.598,VALID,240.991,VALID,20.969,VALID,71,VALID,0,
2000-01-06, 14:54:04,VALID,918.834,VALID,0,INVALID,112.827,VALID,244.429,VALID,20.9089,VALID,96,VALID,0,
2000-01-06, 14:55:04,VALID,918.821,VALID,0,INVALID,112.888,VALID,250.016,VALID,21.008,VALID,88,VALID,0,
2000-01-06, 14:56:04,VALID,918.848,VALID,0,INVALID,113.543,VALID,253.454,VALID,20.969,VALID,61,VALID,0,
2000-01-06, 14:57:04,VALID,918.833,VALID,0,INVALID,113.589,VALID,254.206,VALID,21.0064,VALID,62,VALID,0,
2000-01-06, 14:58:04,VALID,918.856,VALID,0,INVALID,113.612,VALID,254.098,VALID,21.164,VALID,55,VALID,0,
2000-01-06, 14:59:04,VALID,918.895,VALID,0,INVALID,114.054,VALID,254.421,VALID,21.0844,VALID,95,VALID,0,
2000-01-06, 15:00:04,VALID,918.889,VALID,0,INVALID,114.473,VALID,255.28,VALID,21.008,VALID,102,VALID,0,
2000-01-06, 15:01:04,VALID,918.881,VALID,0,INVALID,114.412,VALID,256.462,VALID,21.1445,VALID,79,VALID,0,
2000-01-06, 15:02:04,VALID,918.879,VALID,0,INVALID,114.793,VALID,257.429,VALID,21.164,VALID,68,VALID,0,
2000-01-06, 15:03:04,VALID,918.906,VALID,0,INVALID,115.014,VALID,257.644,VALID,21.1836,VALID,68,VALID,0,
2000-01-06, 15:04:04,VALID,918.909,VALID,0,INVALID,115.266,VALID,256.892,VALID,21.2031,VALID,59,VALID,0,
2000-01-06, 15:05:04,VALID,918.913,VALID,0,INVALID,115.228,VALID,254.85,VALID,21.3006,VALID,66,VALID,0,
2000-01-06, 15:06:04,VALID,918.906,VALID,0,INVALID,115.365,VALID,251.627,VALID,21.3396,VALID,69,VALID,0,
2000-01-06, 15:07:04,VALID,918.91,VALID,0,INVALID,116.036,VALID,248.404,VALID,21.2616,VALID,77,VALID,0,
2000-01-06, 15:08:04,VALID,918.913,VALID,0,INVALID,116.326,VALID,245.288,VALID,21.2015,VALID,70,VALID,0,
2000-01-06, 15:09:04,VALID,918.914,VALID,0,INVALID,116.417,VALID,243.462,VALID,21.2031,VALID,94,VALID,0,
2000-01-06, 15:10:04,VALID,918.902,VALID,0,INVALID,116.31,VALID,242.71,VALID,21.3591,VALID,54,VALID,0,
2000-01-06, 15:11:04,VALID,918.946,VALID,0,INVALID,116.509,VALID,243.354,VALID,21.4372,VALID,82,VALID,0,
2000-01-06, 15:12:04,VALID,918.929,VALID,0,INVALID,116.669,VALID,244.429,VALID,21.4746,VALID,54,VALID,0,
2000-01-06, 15:13:04,VALID,918.921,VALID,0,INVALID,116.615,VALID,245.61,VALID,21.5916,VALID,49,VALID,0,
2000-01-06, 15:14:04,VALID,918.92,VALID,0,INVALID,116.882,VALID,246.47,VALID,21.455,VALID,122,VALID,0,
2000-01-06, 15:15:04,VALID,918.886,VALID,0,INVALID,116.89,VALID,246.255,VALID,21.377,VALID,120,VALID,0,
2000-01-06, 15:16:04,VALID,918.855,VALID,0,INVALID,116.623,VALID,245.718,VALID,21.4746,VALID,120,VALID,0,
2000-01-06, 15:17:04,VALID,918.862,VALID,0,INVALID,116.326,VALID,245.61,VALID,21.6323,VALID,110,VALID,0,
2000-01-06, 15:18:04,VALID,918.832,VALID,0,INVALID,115.716,VALID,246.363,VALID,21.6713,VALID,70,VALID,0,
2000-01-06, 15:19:04,VALID,918.792,VALID,0,INVALID,114.71,VALID,248.834,VALID,21.6501,VALID,74,VALID,0,
2000-01-06, 15:20:04,VALID,918.791,VALID,0,INVALID,114.557,VALID,253.454,VALID,21.7883,VALID,26,VALID,0,
2000-01-06, 15:21:04,VALID,918.745,VALID,0,INVALID,113.581,VALID,259.685,VALID,21.8859,VALID,16,VALID,0,
2000-01-06, 15:22:04,VALID,918.743,VALID,0,INVALID,113.025,VALID,266.991,VALID,21.9428,VALID,16,VALID,0,
2000-01-06, 15:23:04,VALID,918.725,VALID,0,INVALID,113.032,VALID,274.297,VALID,22.0013,VALID,16,VALID,0,
2000-01-06, 15:24:04,VALID,918.71,VALID,0,INVALID,112.926,VALID,280.636,VALID,22.1184,VALID,16,VALID,0,
2000-01-06, 15:25:04,VALID,918.676,VALID,0,INVALID,113.063,VALID,286.223,VALID,22.2354,VALID,16,VALID,0,
2000-01-06, 15:26:04,VALID,918.691,VALID,0,INVALID,112.331,VALID,291.703,VALID,22.3135,VALID,358,VALID,0,
2000-01-06, 15:27:04,VALID,918.704,VALID,0,INVALID,113.048,VALID,296.752,VALID,22.3899,INVALID,360,VALID,0,
2000-01-06, 15:28:05,VALID,918.704,VALID,0,INVALID,112.979,VALID,300.728,VALID,22.5299,VALID,19,VALID,0,
2000-01-06, 15:29:04,VALID,918.697,VALID,0,INVALID,111.119,VALID,305.24,VALID,22.5281,VALID,342,VALID,0,
2000-01-06, 15:30:05,VALID,918.694,VALID,0,INVALID,112.072,VALID,312.869,VALID,22.4696,VALID,331,VALID,0,
2000-01-06, 15:31:04,VALID,918.703,VALID,0,INVALID,112.339,VALID,326.943,VALID,22.4501,VALID,319,VALID,0,
2000-01-06, 15:32:04,VALID,918.709,VALID,0,INVALID,112.697,VALID,333.175,VALID,22.5086,VALID,319,VALID,0,
2000-01-06, 15:33:04,VALID,918.709,VALID,0,INVALID,112.849,VALID,344.671,VALID,22.5672,VALID,319,VALID,0,
2000-01-06, 15:34:04,VALID,918.697,VALID,0,INVALID,110.517,VALID,356.812,VALID,22.5281,VALID,319,VALID,0,
2000-01-06, 15:35:04,VALID,918.649,VALID,0,VALID,104,VALID,358.853,VALID,22.5281,VALID,319,VALID,0,
2000-01-06, 15:36:04,VALID,918.664,VALID,0,INVALID,110.7,VALID,356.275,VALID,22.5459,VALID,325,VALID,0,
